Location: Marcé
(47.5801°N, 0.3280°W)
Time: 20:44:51
(UTC+01:00)

Tiros 1 despin weight - Pass Details

Date: 15 December 2021
Orbit: 592 x 641 km, 48.2° (Epoch: 16 January)

Event Time Altitude Azimuth Distance (km) Brightness Sun altitude
Rises 09:10:36 0° 209° (SSW) 2,882 ? 2.9°
Reaches altitude 10° 09:13:16 10° 195° (SSW) 1,970 ? 3.2°
Maximum altitude 09:16:50 23° 143° (SE) 1,301 ? 3.7°
Drops below altitude 10° 09:20:22 10° 91° (E) 1,953 ? 4.1°
Sets 09:23:00 0° 77° (ENE) 2,851 ? 4.5°
